Regional Weather Roundup
Issued by NWS Huntsville, AL

Home | Current Version | Previous Version | Text Only | Print | Product List | Glossary On
Versions: 1 2 3 4 5 6 7 8 9 10 11 12 13 14 15 16 17 18 19 20 21 22 23 24 25 26 27 28 29 30 31 32 33 34 35 36 37 38 39 40 41 42 43 44 45
000
ASUS44 KHUN 212110
RWRHUN

WEATHER ROUNDUP FOR THE TENNESSEE VALLEY
NATIONAL WEATHER SERVICE HUNTSVILLE AL
400 PM CDT TUE OCT 21 2014

ALZ001>004-212200-
NORTHWEST ALABAMA

CITY           SKY/WX    TMP DP  RH WIND       PRES   REMARKS
SHOALS AIRPORT SUNNY     76  43  30 NW7       30.03S
$$

ALZ005>007-016-212200-
NORTH CENTRAL ALABAMA

CITY           SKY/WX    TMP DP  RH WIND       PRES   REMARKS
DECATUR AP     SUNNY     75  44  33 NW9       30.01F
HUNTSVILLE AP  SUNNY     76  44  32 NW7       30.01S
HUN NWS/UAH      N/A     73  40  30 NW6         N/A
MERIDIANVILLE  SUNNY     72  36  26 N10       30.01S
VINEMONT AP    FAIR      71  47  42 N7        30.04S
$$

ALZ008>010-212200-
NORTHEAST ALABAMA

CITY           SKY/WX    TMP DP  RH WIND       PRES   REMARKS
ALBERTVILLE    SUNNY     70  54  56 NW9       30.00S
FORT PAYNE     SUNNY     70  41  35 N6        29.99S
SCOTTSBORO AP  SUNNY     72  46  40 N6        30.01R
SCOTTSBORO HCN   N/A     72 N/A N/A MISG        N/A
VALLEY HEAD      N/A     68 N/A N/A MISG        N/A
$$

TNZ076-096-097-212200-
SOUTHEASTERN MIDDLE TENNESSEE

CITY           SKY/WX    TMP DP  RH WIND       PRES   REMARKS
TULLAHOMA      SUNNY     70  43  37 NW9       30.03S
WINCHESTER     SUNNY     70  46  43 N10       30.02S
$$

...SURROUNDING SITES...

CITY           SKY/WX    TMP DP  RH WIND       PRES   REMARKS
ATLANTA        MOSUNNY   75  49  39 NW14      29.96R
ANNISTON       SUNNY     76  50  40 NW10      29.98S
BIRMINGHAM     MOSUNNY   76  53  44 NW12      30.01F
CHATTANOOGA    MOSUNNY   72  44  36 N13       29.99S
CORINTH        FAIR      73  45  35 N8G14     30.03S
DALTON         SUNNY     70  46  43 N9        29.98S
GADSDEN        SUNNY     73  46  38 N10       30.00R
GOLDEN TRNGL   PTSUNNY   79  54  41 NW12      30.00F
HALEYVILLE     FAIR      73  49  42 N9        30.05S
JACKSON TN     SUNNY     75  45  34 N7        30.04F
MEMPHIS        SUNNY     76  46  34 CALM      30.05S
NASHVILLE      MOSUNNY   72  45  37 N10       30.03S
OXFORD MS      FAIR      73  46  38 N8        30.05F
ROME           SUNNY     73  47  39 NW13      29.97S
SAVANNAH       SUNNY     73  46  38 NW7       30.04S
TUPELO         SUNNY     76  46  34 NE13      30.02S
TUSCALOOSA     MOSUNNY   79  54  41 W8        29.99F
$$

...GULF COAST WEATHER...

CITY           SKY/WX    TMP DP  RH WIND       PRES   REMARKS
GULFPORT       SUNNY     82  53  36 VRB5      29.97S
PASCAGOULA     SUNNY     82  51  34 N8        29.97S
MOBILE         SUNNY     80  52  37 N10       29.98S
GULF SHORES    CLEAR     76  56  49 S7        29.96F
PENSACOLA      MOSUNNY   80  50  34 SW5       29.95F
DESTIN         SUNNY     79  57  46 VRB3      29.95S
PANAMA CITY    SUNNY     80  57  46 W8        29.94F
APPALACHICOLA  SUNNY     79  63  57 S7        29.93F
$$




USA.gov is the U.S. government's official web portal to all federal, state and local government web resources and services.